Gwinn, MI

9:52 PM EDT on May 25, 2017 (GMT -0400)
Sawyer International

Weather History for KSAW - March, 2013

Change the Weather History Date:

Sunday, March 31, 2013

  Actual Average (KESC) Record (KESC)
Temperature  
Mean Temperature 30 °F -  
Max Temperature 39 °F 39 °F 55 °F (1967)
Min Temperature 21 °F 25 °F 5 °F (1969)
Degree Days  
Heating Degree Days 35    
Moisture  
Dew Point 28 °F    
Average Humidity 86    
Maximum Humidity 100    
Minimum Humidity 48    
Precipitation  
Precipitation 0.00 in - - ()
Sea Level Pressure  
Sea Level Pressure 29.65 in    
Wind  
Wind Speed 9 mph (West)    
Max Wind Speed 24 mph    
Max Gust Speed 36 mph    
Visibility 5 miles    
Events Fog , Snow    
Averages and records for this station are not official NWS values.
T = Trace of Precipitation, MM = Missing Value Source: NWS Daily Summary

Daily Weather History Graph

Daily Weather History Graph

Search for Another Location

Airport or City:

Trip Planner

Search our weather history database for the weather conditions in past years. The results will help you decide how hot, cold, wet, or windy it might be!

Date:

Astronomy

Mar. 31, 2013 Rise Set
Actual Time 7:30 AM EDT 8:17 PM EDT
Civil Twilight 7:00 AM EDT 8:47 PM EDT
Nautical Twilight 6:24 AM EDT 9:24 PM EDT
Astronomical Twilight 5:46 AM EDT 10:02 PM EDT
Moon 12:36 AM EDT (3/31) 10:03 AM EDT (3/31)
Length of Visible Light 13h 47m
Length of Day
12h 46m
Waning Gibbous, 78% of the Moon is Illuminated
Mar 31
Waning Gibbous
Apr 3
Last Quarter
Apr 10
New
Apr 18
First Quarter
Apr 25
Full

Hourly Weather History & Observations

Time (EDT) Temp. Windchill Dew Point Humidity Pressure Visibility Wind Dir Wind Speed Gust Speed Precip Events Conditions
12:17 AM 35.2 °F 30.3 °F 34.2 °F 96% 29.70 in 3.0 mi West 5.8 mph - N/A   Overcast
12:37 AM 35.2 °F 27.6 °F 34.2 °F 96% 29.70 in 3.0 mi West 10.4 mph - N/A   Overcast
12:56 AM 34.9 °F 28.3 °F 33.8 °F 96% 29.69 in 4.0 mi West 8.1 mph - N/A   Overcast
1:17 AM 34.7 °F 29.6 °F 33.6 °F 96% 29.69 in 3.0 mi West 5.8 mph - N/A   Overcast
1:37 AM 34.3 °F 29.2 °F 33.4 °F 97% 29.68 in 2.5 mi West 5.8 mph - N/A   Overcast
1:56 AM 34.0 °F 28.8 °F 33.1 °F 96% 29.67 in 2.0 mi WSW 5.8 mph - N/A   Overcast
2:17 AM 33.8 °F 27.0 °F 32.9 °F 96% 29.66 in 1.0 mi WSW 8.1 mph - N/A   Overcast
2:36 AM 33.8 °F 27.7 °F 32.9 °F 96% 29.66 in 0.5 mi WSW 6.9 mph - N/A Fog Fog
2:57 AM 33.6 °F 26.2 °F 32.9 °F 97% 29.65 in 1.0 mi WSW 9.2 mph - N/A   Overcast
3:17 AM 33.6 °F 26.8 °F 32.9 °F 97% 29.64 in 1.8 mi West 8.1 mph - N/A   Overcast
3:36 AM 33.6 °F 26.2 °F 32.9 °F 97% 29.64 in 2.5 mi WSW 9.2 mph - N/A   Overcast
3:57 AM 33.8 °F 26.4 °F 32.9 °F 96% 29.63 in 3.0 mi WSW 9.2 mph - N/A   Overcast
4:17 AM 33.8 °F 27.0 °F 32.9 °F 96% 29.62 in 3.0 mi WSW 8.1 mph - N/A   Overcast
4:36 AM 33.8 °F 27.0 °F 33.1 °F 97% 29.62 in 3.0 mi WSW 8.1 mph - N/A   Overcast
4:57 AM 33.8 °F 29.6 °F 32.9 °F 96% 29.60 in 3.0 mi WSW 4.6 mph - N/A   Overcast
5:16 AM 33.1 °F 28.7 °F 32.2 °F 96% 29.60 in 3.0 mi WSW 4.6 mph - N/A   Scattered Clouds
5:37 AM 32.7 °F 28.3 °F 32.0 °F 97% 29.59 in 2.5 mi SW 4.6 mph - N/A   Clear
5:57 AM 32.4 °F 27.9 °F 32.0 °F 99% 29.59 in 3.0 mi WSW 4.6 mph - N/A   Clear
6:50 AM 32.0 °F 27.5 °F 32.0 °F 100% 29.58 in 4.0 mi WSW 4.6 mph - N/A   Scattered Clouds
7:50 AM 32.0 °F 27.5 °F 30.2 °F 93% 29.57 in 4.0 mi WSW 4.6 mph - N/A   Mostly Cloudy
8:50 AM 32.0 °F 25.6 °F 30.2 °F 93% 29.56 in 7.0 mi West 6.9 mph - N/A   Mostly Cloudy
9:50 AM 35.6 °F 28.0 °F 30.2 °F 81% 29.55 in 10.0 mi WNW 10.4 mph - N/A   Scattered Clouds
10:50 AM 37.4 °F 29.8 °F 30.2 °F 75% 29.54 in 10.0 mi WNW 11.5 mph 20.7 mph N/A   Scattered Clouds
11:50 AM 39.2 °F 31.2 °F 28.4 °F 65% 29.53 in 10.0 mi West 13.8 mph 23.0 mph N/A   Scattered Clouds
12:50 PM 37.4 °F 28.9 °F 26.6 °F 65% 29.54 in 10.0 mi WNW 13.8 mph 28.8 mph N/A   Overcast
1:55 PM 37.4 °F 26.6 °F 21.2 °F 52% 29.54 in 10.0 mi WNW 21.9 mph 28.8 mph N/A   Mostly Cloudy
2:55 PM 37.4 °F 26.1 °F 19.4 °F 48% 29.55 in 10.0 mi WNW 24.2 mph 35.7 mph N/A   Mostly Cloudy
3:55 PM 35.6 °F 26.2 °F 19.4 °F 52% 29.58 in 10.0 mi West 15.0 mph 27.6 mph N/A   Scattered Clouds
4:50 PM 33.8 °F 22.2 °F 23.0 °F 65% 29.59 in 10.0 mi WNW 20.7 mph 29.9 mph N/A   Mostly Cloudy
5:55 PM 30.2 °F 18.5 °F 23.0 °F 75% 29.63 in 7.0 mi NW 17.3 mph 28.8 mph N/A Snow Light Snow
6:50 PM 28.4 °F 14.7 °F 17.6 °F 64% 29.67 in 10.0 mi NW 21.9 mph 32.2 mph N/A   Mostly Cloudy
7:55 PM 24.8 °F 10.3 °F 19.4 °F 80% 29.70 in 3.0 mi North 20.7 mph 28.8 mph N/A Snow Light Snow
8:55 PM 23.0 °F 11.1 °F 19.4 °F 86% 29.73 in 3.0 mi North 12.7 mph 27.6 mph N/A Snow Light Snow
10:17 PM 23.2 °F 10.3 °F 19.4 °F 85% 29.77 in 4.0 mi NNW 15.0 mph 21.9 mph N/A Snow Light Snow
10:36 PM 23.4 °F 13.5 °F 19.9 °F 87% 29.77 in 2.0 mi North 9.2 mph - N/A Snow Light Snow
10:57 PM 23.0 °F 10.6 °F 19.4 °F 86% 29.78 in 3.0 mi North 13.8 mph - N/A Snow Light Snow
11:16 PM 22.5 °F 9.4 °F 18.0 °F 83% 29.79 in 5.0 mi NNW 15.0 mph 26.5 mph N/A Snow Light Snow
11:37 PM 21.9 °F 10.4 °F 18.1 °F 85% 29.79 in 5.0 mi NNW 11.5 mph 17.3 mph N/A Snow Light Snow
11:57 PM 21.9 °F 10.4 °F 18.3 °F 86% 29.79 in 2.5 mi NNW 11.5 mph 18.4 mph N/A Snow Light Snow